CubeBel-2 (EU11S)
1 57175U 23091K   26233.58929587  .00012835  00000-0  43614-3 0  9999
2 57175  97.4997 297.4399 0008084 235.8109 124.2366 15.30578179174308
RS-38S
1 57189U 23091Z   26233.57726057  .00016389  00000-0  44148-3 0  9991
2 57189  97.5040 304.4463 0006977 182.5749 177.5461 15.37891644174737
SONATE-2
1 59112U 24043Q   26233.38829441  .00048113  00000-0  51659-3 0  9992
2 59112  97.5593  28.0617 0004687 322.4492  37.6439 15.63639285138061
GRBBeta
1 60237U 24128C   26233.58410531  .00003775  00000-0  26214-3 0  9998
2 60237  61.9918 346.7490 0031475 149.0794 211.2161 15.07040612116122
Curium One
1 60242U 24128H   26233.27101160  .00007529  00000-0  42766-3 0  9996
2 60242  61.9798 335.1089 0030490 144.4829 215.8305 15.13348623116304
ROBUSTA-3A
1 60243U 24128J   26233.27344051  .00007614  00000-0  44240-3 0  9999
2 60243  61.9879 337.9393 0032505 141.4105 218.9323 15.12467312116261
CatSat
1 60246U 24125J   26233.12870139  .00089159  00000-0  82365-3 0  9998
2 60246  97.2022  86.8588 0014637 298.1952  61.7830 15.67153064117532
HYPERVIEW-1G (RS66S)
1 61772U 24199AP  26230.11543498  .07890463  24672-5  93922-3 0  9997
2 61772  97.2456 114.2453 0006603 245.8477 114.2131 16.36574258144515
AO-123
1 61781U 24199AY  26233.63251849  .00007391  00000-0  20885-3 0  9998
2 61781  97.2904 101.7194 0015354  75.8530 284.4419 15.36522082143975
LASARsat
1 62391U 24247Q   26233.52441176  .00033958  00000-0  58873-3 0  9998
2 62391  44.9721 253.9529 0008223  27.8856 332.2475 15.50311420 93444
CroCube
1 62394U 24247T   26232.78600976  .00039981  00000-0  63265-3 0  9996
2 62394  44.9694 254.2344 0008381  32.2430 327.8974 15.52795092 93377
JINJUSat 1B
1 63210U 25052A   26233.16159852  .00016911  00000-0  49417-3 0  9995
2 63210  97.3905 130.0624 0002689 163.7358 196.3972 15.35361865 80065
NUSHSAT 1
1 63211U 25052B   26233.61062727  .00020918  00000-0  55456-3 0  9992
2 63211  97.3880 131.3276 0002377 159.1617 200.9726 15.38352083 80194
TEVEL2-4
1 63213U 25052D   26233.14568936  .00018874  00000-0  52781-3 0  9991
2 63213  97.3801 129.7140 0001442 164.9620 195.1667 15.36716971 80085
TEVEL2-5
1 63214U 25052E   26233.17422401  .00018966  00000-0  53391-3 0  9991
2 63214  97.3801 129.6705 0001264 165.8749 194.2531 15.36510124 80088
TEVEL2-6
1 63215U 25052F   26233.18804285  .00019500  00000-0  54944-3 0  9997
2 63215  97.3802 129.6692 0001180 163.5231 196.6052 15.36476328 80084
TEVEL2-1
1 63217U 25052H   26233.17614302  .00018273  00000-0  52523-3 0  9994
2 63217  97.3775 129.2002 0000683 195.1513 164.9711 15.35865015 80069
TEVEL2-3
1 63218U 25052J   26233.16809999  .00018362  00000-0  52659-3 0  9991
2 63218  97.3780 129.2242 0000569 175.9879 184.1369 15.35936110 80064
TEVEL2-2
1 63219U 25052K   26233.17597691  .00018272  00000-0  52499-3 0  9998
2 63219  97.3773 129.2036 0000693 200.0440 160.0777 15.35877908 80065
TEVEL2-9
1 63237U 25052AD  26233.50172972  .00014961  00000-0  46048-3 0  9990
2 63237  97.3838 128.7558 0003617 269.5336  90.5492 15.33742139 80036
TEVEL2-7
1 63238U 25052AE  26233.16467823  .00015829  00000-0  49245-3 0  9991
2 63238  97.3837 128.3053 0003647 272.4053  87.6772 15.33389188 79974
TEVEL2-8
1 63239U 25052AF  26233.17351629  .00016553  00000-0  51496-3 0  9995
2 63239  97.3836 128.2903 0003722 275.0181  85.0636 15.33378762 79979
SPIRONE
1 66657U 25274H   26232.76719232  .00001681  00000-0  16375-3 0  9993
2 66657  97.7467 161.1419 0012562 152.2175 207.9718 14.93766916 39866
K-HERO
1 66660U 25274L   26233.55781908  .00001849  00000-0  17773-3 0  9993
2 66660  97.7476 162.1301 0014422 154.7109 205.4820 14.94167390 39995
SNUGLITE-III DURI
1 66661U 25274M   26233.47744726  .00001578  00000-0  15238-3 0  9995
2 66661  97.7471 162.0716 0015053 156.3332 203.8584 14.94180981 39986
SAKHACUBE-CHOLBON
1 67290U 25313AU  26233.16741396  .00009834  00000-0  38535-3 0  9992
2 67290  97.3885 307.4228 0010625 122.7172 237.5092 15.25928306 35881
RS95S (QMR-KWT-2)
1 67291U 25313AV  26233.15110409  .00014829  00000-0  54741-3 0  9994
2 67291  97.3887 307.7410 0010214 121.1662 239.0581 15.27811091 35908
Ten-Koh2
1 68261U 25241B   26233.64565077  .00007405  00000-0  30932-3 0  9999
2 68261  51.6633   7.9120 0006321 358.8641   1.2322 15.24604974 24890
JACK-002
1 68417U 26067B   26233.60825185  .00005736  00000-0  26870-3 0  9995
2 68417  97.4620 191.4431 0003843  69.1058 291.0588 15.20094683 21886
DISCO 2
1 68431U 26067R   26232.84944329  .00007934  00000-0  37216-3 0  9996
2 68431  97.4651 190.6864 0004022 107.8581 252.3093 15.19926999 21768
HADES-SA (SpinnyONE)
1 68446U 26067AG  26233.32437727  .00017467  00000-0  78792-3 0  9991
2 68446  97.4443 190.7583 0005653 184.6286 175.4898 15.21061058 21822
PARUS-6U1
1 68456U 26067AS  26233.32282644  .00004932  00000-0  24507-3 0  9996
2 68456  97.4604 190.7321 0005205 176.9453 183.1814 15.18108902 21814
SAL-E
1 68458U 26067AU  26233.30282326  .00007568  00000-0  36914-3 0  9996
2 68458  97.4527 190.6188 0005055 186.4834 173.6336 15.18576917 21810
FSI-SAT 2
1 68792U 26088A   26233.35370786  .00004427  00000-0  29705-3 0  9994
2 68792  97.5152  21.0301 0013020 241.6731 118.3184 15.07270402 18104
OrigamiSat 2
1 68795U 26088D   26233.65976997  .00010976  00000-0  67704-3 0  9993
2 68795  97.5144  21.6957 0014328 208.7316 151.3125 15.10015508 18173
ARICA 2
1 68796U 26088E   26233.35983118  .00004818  00000-0  30911-3 0  9992
2 68796  97.5144  21.3132 0014818 210.6235 149.4130 15.08865073 18128
WASEDA-SAT-ZERO-II
1 68797U 26088F   26232.94435183  .00006048  00000-0  38287-3 0  9992
2 68797  97.5142  20.9428 0014566 210.9125 149.1248 15.09259326 18060
MANGARO-II-Piscus
1 68798U 26088G   26233.39793626  .00003085  00000-0  19753-3 0  9997
2 68798  97.5154  21.4280 0018012 213.5238 146.4853 15.09172634 18136
CO-128
1 69912U 26156AV  26233.17660575  .00001176  00000-0  12486-3 0  9999
2 69912  97.7509 132.8358 0002966  26.4202 333.7167 14.90885188  6687
MARINA
1 69920U 26156BD  26233.14156957  .00002175  00000-0  21957-3 0  9992
2 69920  97.7477 132.8650 0007939  17.7470 342.4024 14.92077669  6688
IO-86
1 40931U          26199.45381863  .00000000  00000-0  77536-4 0    07
2 40931   6.0006 322.6653 0012733 338.8432 273.6875 14.79294310    03
LILIUM-4                
1 71922C 26067AC  26089.50133053 -.00014632  00000+0 -74472-3 0    04
2 71922  97.4497  49.1617 0004341   5.9603 355.7042 15.16896692    16
